Location: Unspecified
(47.4992°N, 121.7766°W)
Time: 18:54:53
(UTC-07:00)

Resurs 1-4 Rocket - Visible Passes

Search period start: 29 March 2023 00:00
Search period end: 08 April 2023 00:00
Orbit: 800 x 813 km, 98.7° (Epoch: 29 March)

Date Brightness Start Highest point End Pass type
(mag) Time Alt. Az. Time Alt. Az. Time Alt. Az.
29 Mar 3.2 02:56:09 10° NNE 02:59:37 42° NNE 02:59:37 42° NNE visible
29 Mar 3.8 04:37:13 10° NNW 04:40:39 18° WNW 04:40:42 18° WNW visible
30 Mar 3.5 02:31:30 10° NNE 02:34:42 34° NE 02:34:42 34° NE visible
30 Mar 3.4 04:11:51 10° N 04:15:46 26° NW 04:15:46 26° NW visible
31 Mar 4.0 02:07:03 10° NNE 02:09:46 25° NE 02:09:46 25° NE visible
31 Mar 3.0 03:46:46 10° N 03:50:50 37° NW 03:50:50 37° NW visible
01 Apr 4.4 01:42:56 10° NE 01:44:50 17° ENE 01:44:50 17° ENE visible
01 Apr 2.7 03:21:49 10° N 03:25:54 49° NNW 03:25:54 49° NNW visible
01 Apr 4.2 05:04:12 10° NNW 05:05:51 11° NW 05:06:59 11° WNW visible
02 Apr 4.8 01:19:34 10° ENE 01:19:54 11° ENE 01:19:54 11° ENE visible
02 Apr 2.8 02:57:01 10° NNE 03:00:58 51° NNE 03:00:58 51° NNE visible
02 Apr 3.8 04:38:08 10° NNW 04:41:30 17° NW 04:42:03 17° WNW visible
03 Apr 3.3 02:32:22 10° NNE 02:36:02 40° NE 02:36:02 40° NE visible
03 Apr 3.3 04:12:46 10° N 04:17:04 26° WNW 04:17:07 26° WNW visible
04 Apr 3.8 02:07:55 10° NNE 02:11:06 27° ENE 02:11:06 27° ENE visible
04 Apr 2.9 03:47:38 10° N 03:52:11 39° NW 03:52:11 39° NW visible
05 Apr 4.2 01:43:46 10° NE 01:46:10 18° ENE 01:46:10 18° ENE visible
05 Apr 2.5 03:22:42 10° N 03:27:14 56° NW 03:27:14 56° NW visible
05 Apr 4.2 05:05:09 10° NW 05:06:42 11° NW 05:08:15 10° WNW visible
06 Apr 4.7 01:20:23 10° ENE 01:21:14 12° ENE 01:21:14 12° ENE visible
06 Apr 2.5 02:57:53 10° NNE 03:02:18 62° NNE 03:02:18 62° NNE visible
06 Apr 3.8 04:39:01 10° NNW 04:42:22 17° NW 04:43:23 16° WNW visible
07 Apr 3.0 02:33:14 10° NNE 02:37:22 45° ENE 02:37:22 45° ENE visible
07 Apr 3.3 04:13:38 10° N 04:17:56 26° WNW 04:18:26 25° WNW visible
